Lid_Strength_Index
14 14 14 14 14 14 13 13 13 13 12 10 9 9 10 8 9 9 9 7 5 4 4 5 5 6 6 7 8 10 10 11 12 14 14 14 13 13 13 13 13 13 12
15 15 15 15 15 15 14 13 13 13 12 12 11 11 11 11 12 12 12 12 11 10 7 7 7 7 8 8 9 10 11 11 12 13 14 15 14 14 14 14 13 13 13
16 16 16 16 16 16 15 14 14 13 13 12 12 12 12 12 13 13 13 13 13 12 12 11 10 9 9 9 9 10 11 11 12 13 12 14 16 16 15 15 14 14 14
15 15 16 16 16 16 15 14 14 14 13 13 13 13 14 14 14 14 13 14 13 14 13 13 13 12 11 10 10 10 11 12 12 12 12 13 14 15 15 15 15 15 14
15 15 15 15 16 16 16 16 15 15 14 14 14 15 15 15 15 15 15 14 14 14 14 14 14 14 13 13 13 12 11 11 12 12 13 14 14 15 15 16 16 16 15
15 15 15 15 16 16 16 15 15 15 15 15 15 15 16 16 16 16 16 16 15 15 14 14 15 15 15 14 14 14 13 13 12 12 13 13 14 14 15 16 16 16 16
16 15 15 16 16 16 15 15 15 15 16 16 16 15 16 16 16 16 17 17 16 16 16 14 14 14 15 15 15 15 15 15 15 14 13 12 12 13 13 14 14 15 17
15 15 15 15 15 15 15 15 15 15 15 15 16 16 16 15 16 16 16 16 15 15 15 15 14 15 15 15 15 16 16 16 16 16 16 15 14 13 13 13 14 15 14
14 14 13 14 15 15 15 16 15 15 15 16 16 15 15 16 16 16 16 16 15 14 15 15 15 15 15 15 15 16 16 16 16 16 15 15 14 14 14 14 14 14 16
13 13 14 14 14 15 15 15 15 15 15 14 14 14 15 14 15 16 16 16 16 15 15 15 15 15 15 15 15 15 15 16 16 15 15 15 15 14 13 14 14 15 15
13 12 13 13 12 13 13 13 13 14 14 13 14 14 14 14 14 14 15 16 15 14 14 14 15 15 15 15 16 16 16 16 15 15 16 15 14 14 14 14 14 13 14
13 13 12 13 13 13 13 13 13 13 13 13 14 14 14 14 14 15 14 14 14 14 14 14 14 15 15 15 16 16 16 16 16 15 15 15 14 15 14 14 14 14 13
12 12 13 13 13 13 14 13 13 13 13 14 14 14 14 15 15 14 14 14 14 14 15 14 15 15 15 15 15 16 16 16 15 15 15 15 15 15 14 14 14 13 12
12 13 14 14 13 14 14 14 14 14 13 14 14 14 14 14 14 14 14 15 15 15 15 15 15 15 15 15 15 15 15 15 15 15 15 15 15 15 14 14 14 13 13
12 13 12 13 14 14 14 14 14 13 14 14 14 14 14 14 14 15 15 15 15 15 15 15 15 15 15 14 14 14 15 15 15 15 15 15 15 13 13 14 14 14 14
12 13 13 13 13 13 13 13 14 13 13 14 14 14 14 14 14 14 14 14 14 14 14 15 15 15 14 12 12 12 14 14 15 16 15 15 15 14 13 13 12 13 14
12 12 13 13 13 13 12 13 13 13 15 15 16 16 14 14 14 15 15 15 16 15 16 16 16 16 16 14 12 13 14 15 16 16 16 16 15 16 16 14 13 13 13
13 13 13 13 13 13 13 13 13 14 14 15 16 15 14 16 16 16 17 17 17 17 17 17 17 17 17 14 14 14 15 16 16 17 17 17 17 16 16 16 16 15 15
13 12 12 13 13 13 13 13 14 13 14 14 14 15 16 18 17 19 19 18 18 19 19 18 18 19 19 16 15 15 16 17 17 17 17 17 17 15 14 15 16 16 15
12 12 12 13 13 14 13 13 14 15 15 14 14 15 16 20 20 19 19 19 20 19 19 19 19 20 21 17 15 15 16 18 17 16 16 14 15 13 12 14 15 17 16
12 12 12 13 13 14 14 14 15 16 15 16 17 17 18 20 20 21 20 21 21 20 22 21 21 21 20 19 15 14 16 17 18 17 17 15 13 13 12 12 14 15 14
11 11 12 13 14 14 14 15 16 15 17 18 18 19 23 22 21 26 23 24 23 23 23 23 22 20 19 17 15 14 13 13 16 16 16 16 13 12 12 12 11 11 11
11 11 12 14 14 16 16 16 16 17 18 21 22 25 24 22 22 26 23 23 24 24 23 22 22 21 19 18 15 13 13 12 14 14 13 11 11 10 11 11 11 13 15
12 14 15 15 17 18 16 18 18 18 23 23 23 23 24 24 24 21 21 22 22 22 22 22 21 20 17 16 15 16 15 13 13 13 13 12 11 10 11 13 12 13 13
14 14 14 15 17 18 18 19 19 21 23 23 22 23 24 25 22 21 21 20 19 19 19 17 16 17 17 16 12 12 13 13 13 12 14 16 16 17 16 15 15 15 15
15 16 17 17 19 20 20 21 23 24 24 22 21 22 22 22 21 21 21 16 14 12 12 12 13 15 13 12 12 12 11 11 11 16 20 21 19 19 18 18 17 15 16